Погода Айон Остров

Погода Айон Остров : погода сейчас, прогноз погоды и архив. Всё, что Вы хотите узнать о погоде Айон Остров!

Поиск расширенной информации на нашем сайте:

Другие новости

Новости СМИ2

Главная страница сайта

Новости сайта

03.07.2017

Напоминаем, что на нашем специализированном сайте Метеоцентр.Азия вы можете получить высокодетализированные автоматические прогнозы погоды по пунктам России, СНГ и мира в авиационном формате (включающие направление и скорость ветра, видимость, явления погоды, количество и форму облачности, нижнюю и верхнюю границу облачности).


Погода Айон Остров - сегодня

Время (UTC), дата Ветер
(°,м/с) 
Видим.   Явления Облачность Т
(°С)
Тd
(°С)
f(%) Тe
(°С)
Pmin
(гПа)
dP
(гПа)
Po
(мм)
O2
(г/м3)
Тmin Tmax R s Состояние
почвы
06 16.08.17 050 (СВ) 2-3{05}  20000 м  слаб. дождь  10/8 300 м средняя 
[Frnb|As op]
+6.3 +5.6 95 +6  1005.4  -1.5  753  296           
09 16.08.17 050 (СВ) 3-4{04}  20000 м  слаб. дождь  10/8 300 м средняя 
[Frnb|As op]
+5.5 +4.8 95 +4  1004.4  -1  752  296    +6.8     
12 16.08.17 030 (СВ) 3-5{07}  20000 м  {дождь}  10/3 300 м средняя 
[St|As op]
+4.7 +1.9 82 +4  1003.2  -1.2  751  297           
15 16.08.17 010 (С) 6-8{08}  20000 м    9/4 300 м средняя 
[Sc|Ac trans]
+4.2 +2.4 88 +2  1002.5  -0.7  751  297           
18 16.08.17 360 (С) 7-10{10}  20000 м    10/10 240 м 
[St]
+2.9 +1.8 92 1003.6  1.1  751  299           
21 16.08.17 350 (С) 6-9{10}  20000 м    10/10 300 м 
[St]
+2.9 +1.5 90 1004.6  752  300  +2.7    0.5    влажная 
00 17.08.17 330 (СЗ) 6-8{09}  20000 м    10/5 300 м средняя 
[Sc|Ac und]
+3.6 +1 83 +1  1005.8  1.2  753  299           
03 17.08.17 330 (СЗ) 5-8{09}  20000 м    10/5 300 м средняя 
[Sc|Ac und]
+3.5 +1.9 89 +1  1006.7  0.9  754  300           
06 17.08.17 330 (СЗ) 5-6{08}  20000 м    10/10 420 м 
[St]
+3.3 +2 91 +1  1007.6  0.9  754  300           
09 17.08.17 310 (СЗ) 5-7{07}  20000 м    10/10 420 м 
[St]
+3.5 +2.1 91 +1  1008.2  0.6  755  300    +3.8       
12 17.08.17 300 (СЗ) 7-10{10}  20000 м    10/10 270 м 
[St]
+4.4 +3.2 92 +1  1008.4  0.2  755  299           
15 17.08.17 300 (СЗ) 8-10{11}  20000 м  в посл. час дождь  10/10 300 м 
[St]
+4.5 +3.6 94 +1  1008.3  -0.1  755  299           
18 17.08.17 320 (СЗ) 9-11{13}  20000 м  {дождь}  10/10 360 м 
[St]
+4.3 +2.7 89 +1  1009  0.7  755  299           
21 17.08.17 300 (СЗ) 8-12{13}  20000 м    10/10 500 м 
[Sc]
+4.9 +2.9 87 +2  1010.3  1.3  756  299  +3.5    0.7    влажная 
00 18.08.17 300 (СЗ) 9-11{12}  20000 м    10/10 500 м 
[Sc]
+4.7 +3.1 89 +1  1011.4  1.1  757  300           
03 18.08.17 300 (СЗ) 7-10{11}  20000 м    10/10 540 м 
[Sc]
+4.8 +2.6 86 +2  1012.2  0.8  758  300           
06 18.08.17 310 (СЗ) 7-9{14}  20000 м    10/10 630 м 
[Sc]
+5 +3 87 +2  1012.7  0.5  758  300           
09 18.08.17 300 (СЗ) 5-7{09}  20000 м    10/10 570 м 
[Sc]
+5.1 +2.3 82 +3  1012.9  0.2  758  300    +5.2       
12 18.08.17 300 (СЗ) 6-7{08}  20000 м    10/10 600 м 
[Sc]
+4.6 +2.3 85 +2  1013.3  0.4  759  300           
15 18.08.17 300 (СЗ) 6-7{08}  20000 м    10/10 480 м 
[Sc]
+5.2 +3.2 87 +3  1013  -0.3  758  299           
18 18.08.17 310 (СЗ) 3-4{07}  20000 м    10/10 450 м 
[St]
+5.3 +3.9 91 +4  1013.5  0.5  759  299           
21 18.08.17 300 (СЗ) 4-5{06}  20000 м    10/5 300 м средняя 
[Sc|Ac trans]
+6.5 +3.5 81 +5  1013.8  0.3  759  298  +4.4        влажная 
00 19.08.17 280 (З) 5-6{07}  20000 м    10/6 500 м средняя 
[Sc|Ac und]
+7.1 +4.5 84 +5  1014.3  0.5  759  298           
03 19.08.17 290 (З) 4-5{06}  20000 м    6/0 средняя, верхняя 
[Ac trans|Ci fib]
+7.7 +4.9 82 +6  1014.7  0.4  760  297           
06 19.08.17 250 (З) 2-3{05}  20000 м    3/0 средняя, верхняя 
[Ac trans|Ci fib]
+7.8 +4.7 81 +8  1013.7  -1  759  297           
Время (UTC), дата Ветер
(°,м/с) 
Видим.   Явления Облачность Т
(°С)
Тd
(°С)
f(%) Тe
(°С)
Pmin
(гПа)
dP
(гПа)
Po
(мм)
O2
(г/м3)
Тmin Tmax R s Состояние
почвы

Для получения пояснительной информации подведите курсор к названию столбца.

ПОГОДА Айон Остров - архив

Всё, что Вы хотите узнать о погоде Айон Остров - удобно и подробно!

Выберите нужную дату (начиная с 1 января 2015* года) и нажмите кнопку "Найти".
Будут отображены архивные сводки погоды по пункту Айон Остров, начиная с указанной даты.


Отображать данные в формате CSV (для использования в таблицах Excel)


Внимание! Наш архив погоды предназначен исключительно для личного некоммерческого использования в познавательных целях. Если Вам необходимы официальные справки о состоянии погоды (для производственных, юридических, коммерческих и т.п. целей), обращайтесь в органы Росгидромета.

*Примечание: данная дата относится к архиву по метеостанциям СССР (Россия, СНГ, Балтия).
Архив по метеостанциям Зарубежной Европы и Азии (кроме Китая) хранится 10 дней, по другим регионам земного шара (Китай, Африка, Америка, Австралия, Океания) - 1 день.

Айон Остров - район местоположения метеостанции


Название, широта, долгота, высота метеостанции:
Айон Остров 69.8°ш. 168.7°д. 16 м над ур. моря [Российская Федерация]

Дополнительная информация

В oтличие oт бoльшинства пoгoдных сайтoв мы публикуем пoдрoбную метеoинфoрмацию в детальнoм прoфессиoнальнoм фoрмате.

Характеристики температуры и влажнoсти вoздуха измеряются на высoте 2 м в тени вдали oт зданий и деревьев.
Скoрoсть ветра измеряется на высoте 10 м (на урoвне рoста челoвека скoрoсть ветра ниже в 1.5-2 раза). Если метеoстанция нахoдится в гoрoде или в лесу, тo скoрoсть ветра занижена на 2-4 м/с пo сравнению с oткрытым местoм. Скoрoсть ветра над акватoриями крупных рек и oзёр, а также на вершинах хoлмoв на 2-5 м/с выше, чем в oбычных услoвиях.
Атмoсфернoе давление в разных тoчках местнoсти мoжет значительнo oтличаться oт давления на метеoстанции, в зависимoсти oт услoвий рельефа (при пoдъёме на 10 м давление пoнижается примернo на 1 мм рт.ст.).